Weather History for Hoonah, AK

Change the Weather History Date:

Tuesday, May 14, 2013

  Actual Average Record
Temperature  
Mean Temperature 48 °F -  
Max Temperature 52 °F 53 °F 68 °F (1999)
Min Temperature 43 °F 36 °F 29 °F (2011)
Degree Days  
Heating Degree Days 18    
Moisture  
Dew Point 45 °F    
Average Humidity 92    
Maximum Humidity 100    
Minimum Humidity 76    
Precipitation  
Precipitation 0.03 in - - ()
Sea Level Pressure  
Sea Level Pressure 29.80 in    
Wind  
Wind Speed 2 mph (NW)    
Max Wind Speed 9 mph    
Max Gust Speed -    
Visibility 9 miles    
Events Rain    
Averages and records for this station are not official NWS values.
T = Trace of Precipitation, MM = Missing Value Source: NWS Daily Summary

Daily Weather History Graph

Daily Weather History Graph

Search for Another Location

Airport:

Trip Planner

Search our weather history database for the weather conditions in past years. The results will help you decide how hot, cold, wet, or windy it might be!

Date:

Astronomy

May. 14, 2013 Rise Set
Actual Time 4:37 AM AKDT 9:19 PM AKDT
Civil Twilight 3:42 AM AKDT 10:15 PM AKDT
Nautical Twilight 2:03 AM AKDT 11:59 PM AKDT
Astronomical Twilight Sun does not rise Sun does not rise
Moon 8:28 AM AKDT (5/14) 12:30 AM AKDT (5/14)
Length of Visible Light 18h 33m
Length of Day
16h 41m
Waxing Crescent, 20% of the Moon is Illuminated
May 14
Waxing Crescent
May 17
First Quarter
May 24
Full
May 31
Last Quarter
Jun 8
New

Hourly Weather History & Observations

Time (AKDT) Temp. Windchill Dew Point Humidity Pressure Visibility Wind Dir Wind Speed Gust Speed Precip Events Conditions
12:56 AM 46.4 °F - 46.4 °F 100% 29.68 in 10.0 mi Calm Calm - N/A   Overcast
1:56 AM 45.0 °F - 45.0 °F 100% 29.70 in 10.0 mi Calm Calm - N/A   Overcast
2:56 AM 45.0 °F - 45.0 °F 100% 29.72 in 10.0 mi Calm Calm - N/A   Overcast
3:56 AM 43.9 °F - 43.9 °F 100% 29.73 in 10.0 mi Calm Calm - N/A   Overcast
4:56 AM 43.9 °F - 43.9 °F 100% 29.74 in 8.0 mi Calm Calm - 0.00 in Rain Light Rain
5:56 AM 43.9 °F 42.3 °F 43.9 °F 100% 29.74 in 7.0 mi ESE 3.5 mph - 0.01 in Rain Light Rain
6:56 AM 46.4 °F 43.5 °F 44.6 °F 93% 29.74 in 9.0 mi East 5.8 mph - N/A   Overcast
7:56 AM 46.9 °F - 45.9 °F 96% 29.76 in 10.0 mi Calm Calm - N/A   Overcast
8:56 AM 46.9 °F - 45.9 °F 96% 29.78 in 10.0 mi Calm Calm - N/A   Overcast
9:56 AM 46.4 °F 45.2 °F 46.4 °F 100% 29.79 in 8.0 mi Variable 3.5 mph - N/A Rain Light Rain
10:56 AM 46.9 °F - 45.9 °F 96% 29.81 in 6.0 mi WNW 3.5 mph - 0.00 in Rain Light Rain
11:56 AM 47.8 °F - 46.9 °F 97% 29.82 in 4.0 mi West 3.5 mph - 0.01 in Rain Light Rain
12:56 PM 50.0 °F - 46.4 °F 87% 29.82 in 10.0 mi Calm Calm - N/A   Overcast
1:56 PM 50.9 °F - 46.9 °F 86% 29.82 in 10.0 mi NW 5.8 mph - 0.00 in   Overcast
2:29 PM 51.8 °F - 44.6 °F 76% 29.82 in 10.0 mi Calm Calm - N/A   Overcast
2:56 PM 52.0 °F - 45.9 °F 80% 29.82 in 10.0 mi Variable 4.6 mph - N/A   Mostly Cloudy
3:56 PM 51.8 °F - 44.6 °F 76% 29.82 in 10.0 mi WSW 8.1 mph - N/A   Mostly Cloudy
4:36 PM 51.8 °F - 44.6 °F 76% 29.82 in 10.0 mi West 9.2 mph - 0.00 in Rain Light Rain
4:56 PM 50.9 °F - 45.9 °F 83% 29.83 in 10.0 mi NW 4.6 mph - 0.00 in   Mostly Cloudy
5:56 PM 48.9 °F - 45.9 °F 89% 29.83 in 6.0 mi Variable 4.6 mph - 0.01 in Rain Light Rain
6:56 PM 48.2 °F - 46.4 °F 93% 29.84 in 10.0 mi NW 3.5 mph - N/A   Overcast
7:56 PM 47.8 °F - 43.9 °F 86% 29.85 in 10.0 mi Variable 3.5 mph - 0.00 in   Mostly Cloudy
8:56 PM 46.9 °F - 45.0 °F 93% 29.85 in 10.0 mi Variable 4.6 mph - N/A   Overcast
9:56 PM 45.9 °F 43.6 °F 45.0 °F 97% 29.85 in 10.0 mi NNE 4.6 mph - N/A   Overcast
10:56 PM 45.9 °F - 45.0 °F 97% 29.86 in 10.0 mi Calm Calm - N/A   Overcast
11:56 PM 45.9 °F - 45.0 °F 97% 29.86 in 10.0 mi Calm Calm - N/A   Overcast